Location: Newark
(41.2758°N, 92.6808°W)
Time: 14:07:37
(UTC+00:00)

N. Korean satellite - Pass Details

Date: 01 October 2019
Orbit: 455 x 508 km, 97.2° (Epoch: 15 October)

Event Time Altitude Azimuth Distance (km) Brightness Sun altitude
Rises 11:19:06 0° 28° (NNE) 2,488 10.7 -9.9°
Reaches altitude 10° 11:21:35 10° 47° (NE) 1,614 10.0 -9.4°
Maximum altitude 11:24:07 19° 94° (E) 1,165 9.8 -8.9°
Drops below altitude 10° 11:26:40 10° 142° (SE) 1,621 9.7 -8.4°
Sets 11:29:09 0° 161° (SSE) 2,502 10.4 -8.0°
